Погода в Воютине

Россия / Владимирская область     55°15′03″N   41°49′57″E
темп.,
°C
ветер,
м/с
пор.,
м/с
влажн.,
%
обл.,
%
осадки,
мм/ч
давл.,
гПа
погр.,
м
6 марта, сб
сб600:00−12сз33900 0.0 101429
03:00−14зсз22870 0.0 101520
06:00−15з12890 0.0 101520
09:00−11зюз23932 0.0 1016124
12:00−6з248445 0.0 1016552
15:00−5зсз347872 0.3 1014921
18:00−8зсз2286100 0.1 101421
21:00−9з129699 0.7 101422
7 марта, вс
вс700:00−12зюз239690 0.3 101321
03:00−14юз349547 0.3 101259
06:00−14ююз499426 0.0 1009171
09:00−8ююз8148463 0.0 1005602
12:00−6ююз91593100 0.6 1000937
15:00−4ююз91593100 2.0 9961232
18:00−3юз81492100 1.3 993910
21:00−8зюз61577100 1.8 995546
8 марта, пн
пн800:00−10зюз5128311 0.0 996308
03:00−10юз5138547 0.0 996386
06:00−10юз41092100 0.1 995286
09:00−8ююз599499 0.4 993453
12:00−4з2489100 0.7 993553
15:00−5сз71181100 1.5 996889
18:00−9зсз51188100 0.1 999410
21:00−10зсз5119195 0.1 1003366
9 марта, вт
вт900:00−12зсз41093100 0.0 1005302
03:00−15зсз489596 0.1 1008167
06:00−16зсз379691 0.0 1010124
09:00−15сз479392 0.1 1012361
12:00−12сз468898 0.0 1013582
15:00−12сз578699 0.1 1014643
18:00−16сз369198 0.0 1015109
21:00−20сз349654 0.0 101863
10 марта, ср
ср1000:00−22сз34970 0.0 101937
03:00−24зсз23970 0.0 102021
06:00−26ссз22994 0.0 102019
09:00−22с23942 0.0 1021181
12:00−17ссв338578 0.0 1021470
15:00−15ссв348489 0.0 1021585
18:00−19ссв239496 0.0 102222
21:00−22с339893 0.0 102527